sat.trackr.live / text

‹ back to catalog

STARLINK-4075

NORAD 52670 · 2022-053Q

PAYLOAD ACTIVE UNKNOWN

§ Identity

Operator
Country
US
Launch date
2022-05-18
Launch site
AFETR
Launch vehicle
Mass (kg)
RCS (m²)

Purposes: comms

External: N2YO · Heavens-Above · Gunter

§ Orbital elements

Epoch: 2026-09-19T19:39:03.087072Z

Period
95.44 min
Inclination
53.1621°
Eccentricity
0.0001584
Mean motion
15.08844970 rev/d
Perigee alt
538.6 km
Apogee alt
540.8 km
Semi-major
6,917.9 km
B*
2.7045e-4
RAAN
2.0481°
Arg perigee
63.1287°
Mean anomaly
296.9866°
Rev number
24,035

§ Raw data

STARLINK-40751 52670U 22053Q   26262.81878573  .00004020  00000+0  27045-3 0  99932 52670  53.1621   2.0481 0001584  63.1287 296.9866 15.08844970240356

JSON: /api/v1/satellites/52670 · /tle

For live sub-satellite position, see the globe view (requires WebGL).

§ Visibility from observer

Set your observer location to see the next 7 days of passes ≥ 10°. The values pass through the URL so the page stays shareable.

No JS? Fill the form by hand. The geolocation button needs JavaScript.